When you browse on this site, cookies collect data to enhance your experience and personalize the content and advertising you see.
Visit our Privacy Policy to learn more. By continuing to use the site, you agree to this use of cookies and data.
  • In United Kingdom
  • List of Countries
  • For 7 days
  • Water Temperature
  • Satellite Maps
  • Weather Map
  • Weather Widgets
  • user-avatar
    Login

    Hourly Weather Ledzin

    Today, 19 February, Tuesday

    Time Temperature Precipitation Wind Pressure Humidity
    00:00 +4°C° 0 mm 4 mps 759 mmHg 85%
    01:00 +4°C° 0 mm 4 mps 759 mmHg 84%
    02:00 +4°C° 0 mm 4 mps 758 mmHg 84%
    03:00 +4°C° 0 mm 4 mps 758 mmHg 85%
    04:00 +3°C° 0 mm 5 mps 757 mmHg 85%
    05:00 +2°C° 0 mm 5 mps 757 mmHg 86%
    06:00 +2°C° 0 mm 5 mps 757 mmHg 87%
    07:00 +3°C° 0 mm 4 mps 757 mmHg 88%
    08:00 +2°C° 0 mm 5 mps 757 mmHg 85%
    09:00 +3°C° 0 mm 6 mps 757 mmHg 83%
    10:00 +4°C° 0 mm 7 mps 757 mmHg 80%
    11:00 +5°C° 0 mm 7 mps 757 mmHg 79%
    12:00 +6°C° 0 mm 7 mps 757 mmHg 77%
    13:00 +6°C° 0 mm 7 mps 757 mmHg 75%
    14:00 +6°C° 0 mm 7 mps 757 mmHg 73%
    15:00 +6°C° 0 mm 7 mps 757 mmHg 70%
    16:00 +6°C° 0 mm 7 mps 757 mmHg 68%
    17:00 +6°C° 0.2 mm 7 mps 757 mmHg 71%
    18:00 +5°C° 0.2 mm 7 mps 757 mmHg 74%
    19:00 +5°C° 0.2 mm 7 mps 757 mmHg 78%
    20:00 +4°C° 0 mm 8 mps 757 mmHg 78%
    21:00 +4°C° 0 mm 8 mps 757 mmHg 79%
    22:00 +3°C° 0 mm 9 mps 757 mmHg 79%
    23:00 +2°C° 0 mm 8 mps 758 mmHg 82%

    Tomorrow, 20 February, Wednesday

    Time Temperature Precipitation Wind Pressure Humidity
    00:00 +2°C° 0 mm 8 mps 758 mmHg 85%
    01:00 +1°C° 0 mm 8 mps 758 mmHg 87%
    02:00 +2°C° 0 mm 9 mps 758 mmHg 86%
    03:00 +2°C° 0 mm 9 mps 758 mmHg 85%
    04:00 +2°C° 0 mm 9 mps 759 mmHg 85%
    05:00 +2°C° 0 mm 9 mps 759 mmHg 84%
    06:00 +2°C° 0 mm 9 mps 759 mmHg 83%
    07:00 +2°C° 0 mm 9 mps 759 mmHg 83%
    08:00 +2°C° 0 mm 9 mps 760 mmHg 82%
    09:00 +2°C° 0 mm 8 mps 761 mmHg 80%
    10:00 +4°C° 0 mm 8 mps 761 mmHg 79%
    11:00 +4°C° 0 mm 8 mps 761 mmHg 77%
    12:00 +4°C° 0 mm 8 mps 762 mmHg 76%
    13:00 +5°C° 0 mm 8 mps 762 mmHg 74%
    14:00 +5°C° 0 mm 7 mps 762 mmHg 75%
    15:00 +5°C° 0 mm 6 mps 763 mmHg 76%
    16:00 +5°C° 0 mm 6 mps 763 mmHg 76%
    17:00 +5°C° 0 mm 5 mps 763 mmHg 79%
    18:00 +4°C° 0 mm 4 mps 763 mmHg 83%
    19:00 +4°C° 0 mm 4 mps 764 mmHg 86%
    20:00 +4°C° 0.1 mm 4 mps 764 mmHg 87%
    21:00 +4°C° 0.1 mm 4 mps 764 mmHg 89%
    22:00 +5°C° 0.1 mm 4 mps 764 mmHg 90%
    23:00 +5°C° 0.2 mm 4 mps 764 mmHg 91%

    Day after tomorrow, 21 February, Thursday

    Time Temperature Precipitation Wind Pressure Humidity
    00:00 +5°C° 0.2 mm 4 mps 764 mmHg 91%
    01:00 +5°C° 0.2 mm 4 mps 764 mmHg 92%
    02:00 +5°C° 0.6 mm 5 mps 764 mmHg 92%
    03:00 +4°C° 0.6 mm 6 mps 763 mmHg 92%
    04:00 +4°C° 0.6 mm 7 mps 763 mmHg 93%
    05:00 +4°C° 0.7 mm 7 mps 763 mmHg 92%
    06:00 +4°C° 0.7 mm 7 mps 763 mmHg 92%
    07:00 +4°C° 0.7 mm 7 mps 763 mmHg 92%
    08:00 +4°C° 0.2 mm 7 mps 763 mmHg 91%
    09:00 +4°C° 0.2 mm 7 mps 763 mmHg 91%
    10:00 +5°C° 0.2 mm 7 mps 763 mmHg 90%
    11:00 +5°C° 1.1 mm 7 mps 763 mmHg 90%
    12:00 +5°C° 1.1 mm 7 mps 763 mmHg 90%
    13:00 +5°C° 1.1 mm 8 mps 762 mmHg 90%
    14:00 +5°C° 0.2 mm 8 mps 762 mmHg 91%
    15:00 +5°C° 0.2 mm 8 mps 762 mmHg 91%
    16:00 +5°C° 0.2 mm 8 mps 762 mmHg 91%
    17:00 +5°C° 0.1 mm 8 mps 763 mmHg 91%
    18:00 +4°C° 0.1 mm 8 mps 763 mmHg 92%
    19:00 +4°C° 0.1 mm 7 mps 764 mmHg 92%
    20:00 +4°C° 0.1 mm 7 mps 765 mmHg 92%
    21:00 +4°C° 0.1 mm 7 mps 765 mmHg 92%
    22:00 +3°C° 0.1 mm 7 mps 766 mmHg 92%
    23:00 +3°C° 0 mm 7 mps 767 mmHg 90%

    22 February, Friday

    Time Temperature Precipitation Wind Pressure Humidity
    00:00 +2°C° 0 mm 7 mps 768 mmHg 88%
    01:00 +1°C° 0 mm 6 mps 769 mmHg 87%
    02:00 -1°C° 0 mm 6 mps 770 mmHg 86%
    03:00 -1°C° 0 mm 6 mps 771 mmHg 85%
    04:00 -2°C° 0 mm 6 mps 772 mmHg 84%
    05:00 -2°C° 0 mm 6 mps 773 mmHg 82%
    06:00 -1°C° 0 mm 5 mps 774 mmHg 81%
    07:00 -2°C° 0 mm 5 mps 775 mmHg 79%
    08:00 -1°C° 0 mm 5 mps 775 mmHg 75%
    09:00 -1°C° 0 mm 5 mps 776 mmHg 71%
    10:00 0°C° 0 mm 5 mps 777 mmHg 67%
    11:00 0°C° 0 mm 4 mps 777 mmHg 63%
    12:00 +1°C° 0 mm 4 mps 778 mmHg 59%
    13:00 +1°C° 0 mm 4 mps 778 mmHg 56%
    14:00 +1°C° 0 mm 4 mps 778 mmHg 56%
    15:00 +1°C° 0 mm 4 mps 779 mmHg 56%
    16:00 +1°C° 0 mm 4 mps 779 mmHg 57%
    17:00 0°C° 0 mm 4 mps 779 mmHg 60%
    18:00 0°C° 0 mm 3 mps 779 mmHg 64%
    19:00 -1°C° 0 mm 3 mps 779 mmHg 67%
    20:00 -1°C° 0 mm 3 mps 779 mmHg 67%
    21:00 -1°C° 0 mm 3 mps 779 mmHg 66%
    22:00 -1°C° 0 mm 2 mps 780 mmHg 66%
    23:00 -1°C° 0 mm 2 mps 780 mmHg 66%

    23 February, Saturday

    Time Temperature Precipitation Wind Pressure Humidity
    00:00 -1°C° 0 mm 3 mps 780 mmHg 66%
    01:00 -1°C° 0 mm 3 mps 780 mmHg 65%
    02:00 -1°C° 0 mm 3 mps 779 mmHg 65%
    03:00 -1°C° 0 mm 3 mps 779 mmHg 64%
    04:00 -1°C° 0 mm 3 mps 779 mmHg 63%
    05:00 -1°C° 0 mm 3 mps 779 mmHg 63%
    06:00 -1°C° 0 mm 3 mps 778 mmHg 64%
    07:00 -1°C° 0 mm 3 mps 778 mmHg 64%
    08:00 -1°C° 0 mm 3 mps 778 mmHg 62%
    09:00 0°C° 0 mm 3 mps 778 mmHg 61%
    10:00 +1°C° 0 mm 3 mps 778 mmHg 59%
    11:00 +2°C° 0 mm 3 mps 778 mmHg 59%
    12:00 +3°C° 0 mm 3 mps 778 mmHg 58%
    13:00 +4°C° 0 mm 3 mps 777 mmHg 58%
    14:00 +4°C° 0 mm 3 mps 777 mmHg 61%
    15:00 +4°C° 0 mm 3 mps 776 mmHg 64%
    16:00 +3°C° 0 mm 3 mps 776 mmHg 68%
    17:00 +3°C° 0 mm 3 mps 776 mmHg 71%
    18:00 +4°C° 0 mm 2 mps 776 mmHg 75%
    19:00 +3°C° 0 mm 2 mps 776 mmHg 78%
    20:00 +3°C° 0 mm 2 mps 776 mmHg 81%
    21:00 +3°C° 0 mm 2 mps 776 mmHg 84%
    22:00 +3°C° 0 mm 2 mps 776 mmHg 87%
    23:00 +3°C° 0 mm 2 mps 776 mmHg 89%

    24 February, Sunday

    Time Temperature Precipitation Wind Pressure Humidity
    00:00 +4°C° 0 mm 1 mps 776 mmHg 91%
    01:00 +4°C° 0 mm 1 mps 777 mmHg 92%
    02:00 +4°C° 0 mm 1 mps 777 mmHg 93%
    03:00 +4°C° 0 mm 1 mps 777 mmHg 93%
    04:00 +4°C° 0 mm 0 mps 777 mmHg 94%
    05:00 +5°C° 0 mm 1 mps 777 mmHg 94%
    06:00 +5°C° 0 mm 1 mps 777 mmHg 94%
    07:00 +5°C° 0 mm 1 mps 777 mmHg 94%
    08:00 +5°C° 0 mm 1 mps 777 mmHg 92%
    09:00 +6°C° 0 mm 1 mps 778 mmHg 90%
    10:00 +6°C° 0 mm 1 mps 778 mmHg 87%
    11:00 +6°C° 0 mm 2 mps 778 mmHg 84%
    12:00 +7°C° 0 mm 2 mps 778 mmHg 81%
    13:00 +7°C° 0 mm 2 mps 778 mmHg 78%
    14:00 +7°C° 0 mm 2 mps 778 mmHg 78%
    15:00 +8°C° 0 mm 1 mps 778 mmHg 78%
    16:00 +8°C° 0 mm 1 mps 777 mmHg 78%
    17:00 +8°C° 0 mm 1 mps 777 mmHg 80%
    18:00 +7°C° 0 mm 1 mps 777 mmHg 82%
    19:00 +6°C° 0 mm 0 mps 778 mmHg 84%
    20:00 +7°C° 0 mm 1 mps 778 mmHg 85%
    21:00 +7°C° 0 mm 1 mps 777 mmHg 85%
    22:00 +6°C° 0 mm 1 mps 777 mmHg 86%
    23:00 +5°C° 0 mm 2 mps 778 mmHg 86%
    Show more